{"data":{"norad_id":65999,"intl_designator":"2025-231E","name":"HULIANWANG DIGUI-91","alt_names":[],"object_type":"PAYLOAD","status":"ACTIVE","operator":null,"country":"PRC","launch_date":"2025-10-16","launch_site_code":"WSC","launch_vehicle":null,"mission":null,"orbit_class":"UNKNOWN","rcs_meters":null,"size_class":null,"mass_kg":null,"dimensions":null,"purposes":[],"wikipedia_slug":null,"has_3d_model":false,"image_url":null,"decayed_at":null,"tle_current":{"epoch":"2026-09-20T13:01:29.788032Z","epoch_age_seconds":136824,"freshness":"FRESH","line1":"1 65999U 25231E   26263.54270588 -.00000105  00000+0  41114-4 0  9990","line2":"2 65999  50.0006 193.6328 0000465  60.2484 299.8434 13.29329870 45576","mean_motion":13.2932987,"eccentricity":4.65e-5,"inclination_deg":50.0006,"raan_deg":193.6328,"arg_perigee_deg":60.2484,"mean_anomaly_deg":299.8434,"bstar":4.1114e-5,"rev_number":4557,"period_min":108.32525714629,"perigee_km":1148.9419369303,"apogee_km":1149.6419878238,"semimajor_km":7527.428962377,"source":"CELESTRAK","updated_at":"2026-09-21T09:00:15.693387Z"}}}